Date String (YYYY-MM-DD hh:mm:ss) UTC,Instrument flags,Ambient pressure (hPa),Sample flow (lpm),Bypass flow (lpm),Sample temperature (°C),Ambient temperature (°C),ASC tube jacket temperature (°C),LED temperature (°C),Box temperature (°C),Sample RH (%),Span deviation,Mass concentration (μg/m³),Mass concentration (μg/m³),Mass concentration (μg/m³)
DateTimeUTC,F1_M11,P_M11,Q1_M11,Q2_M11,T1_M11,T2_M11,T3_M11,T4_M11,T5_M11,U1_M11,ZSPAN_M11,X2_M11,X0_M11,X1_M11
2023-03-04 19:00:00,,0820.6,5.00,0.00,22.8,21.6,00.0,31.5,24.7,14.2,-000.6,0007.55,0010.93,0007.21
2023-03-04 19:01:00,,0820.6,5.01,0.00,22.8,21.6,00.0,31.5,24.7,14.3,-000.8,0007.55,0011.01,0007.22
2023-03-04 19:02:00,,0820.6,5.00,0.00,22.8,21.5,00.0,31.5,24.7,14.0,-001.0,0007.59,0011.28,0007.26
2023-03-04 19:03:00,,0820.6,5.00,0.00,22.8,21.5,00.0,31.5,24.7,14.1,-001.3,0007.66,0011.52,0007.29
2023-03-04 19:04:00,,0820.5,5.00,0.00,22.8,21.5,00.0,31.5,24.7,14.1,-001.5,0007.69,0011.23,0007.32
2023-03-04 19:05:00,,0820.5,4.99,0.00,22.8,21.5,00.0,31.5,24.7,13.9,-001.5,0007.69,0010.90,0007.34
2023-03-04 19:06:00,,0820.5,5.00,0.00,22.8,21.5,00.0,31.5,24.7,14.5,-001.6,0007.71,0010.95,0007.33
2023-03-04 19:07:00,,0820.4,5.01,0.00,22.8,21.5,00.0,31.5,24.7,14.6,-002.0,0007.70,0011.01,0007.31
2023-03-04 19:08:00,,0820.4,5.01,0.00,22.8,21.5,00.0,31.5,24.7,14.5,-002.1,0007.68,0011.44,0007.30
2023-03-04 19:09:00,,0820.4,4.99,0.00,22.8,21.5,00.0,31.5,24.7,14.6,-002.0,0007.63,0011.30,0007.28
2023-03-04 19:10:00,,0820.4,5.01,0.00,22.8,21.5,00.0,31.5,24.7,14.8,-001.6,0007.59,0011.17,0007.25
2023-03-04 19:11:00,,0820.3,4.99,0.00,22.8,21.4,00.0,31.5,24.7,14.9,-001.1,0007.59,0011.16,0007.24
2023-03-04 19:12:00,,0820.3,4.99,0.00,22.8,21.3,00.0,31.5,24.6,14.8,-000.8,0007.54,0011.51,0007.21
2023-03-04 19:13:00,,0820.3,4.99,0.00,22.8,21.3,00.0,31.5,24.7,14.7,-000.8,0007.51,0011.45,0007.17
2023-03-04 19:14:00,,0820.3,4.98,0.00,22.8,21.3,00.0,31.5,24.6,14.4,-000.9,0007.49,0011.28,0007.15
2023-03-04 19:15:00,,0820.3,4.99,0.00,22.8,21.2,00.0,31.5,24.7,14.4,-000.5,0007.45,0011.23,0007.12
2023-03-04 19:16:00,,0820.3,5.02,0.00,22.8,21.2,00.0,31.5,24.7,14.1,-000.3,0007.42,0011.22,0007.09
2023-03-04 19:17:00,,0820.3,5.05,0.00,22.8,21.2,00.0,31.5,24.6,14.0,0000.1,0007.42,0011.39,0007.07
2023-03-04 19:18:00,,0820.3,5.01,0.00,22.8,21.3,00.0,31.5,24.6,14.1,0000.3,0007.41,0011.54,0007.06
2023-03-04 19:19:00,,0820.2,4.99,0.00,22.8,21.4,00.0,31.5,24.6,14.1,0000.3,0007.43,0011.72,0007.07
2023-03-04 19:20:00,,0820.3,5.00,0.00,22.8,21.5,00.0,31.5,24.7,13.9,0000.5,0007.46,0011.80,0007.07
2023-03-04 19:21:00,,0820.2,5.00,0.00,22.8,21.5,00.0,31.5,24.7,13.7,0000.5,0007.46,0011.87,0007.06
2023-03-04 19:22:00,,0820.2,5.00,0.00,22.8,21.6,00.0,31.5,24.7,13.9,0000.1,0007.45,0011.90,0007.05
2023-03-04 19:23:00,,0820.2,5.00,0.00,22.8,21.6,00.0,31.5,24.7,13.7,0000.0,0007.47,0011.52,0007.04
2023-03-04 19:24:00,,0820.2,5.00,0.00,22.8,21.6,00.0,31.5,24.7,14.0,-000.0,0007.48,0011.40,0007.05
2023-03-04 19:25:00,,0820.1,5.00,0.00,22.9,21.6,00.0,31.6,24.7,13.9,0000.1,0007.48,0011.38,0007.06
2023-03-04 19:26:00,,0820.0,5.00,0.00,22.9,21.6,00.0,31.6,24.8,13.8,0000.6,0007.47,0011.34,0007.05
2023-03-04 19:27:00,,0820.0,5.00,0.00,22.9,21.5,00.0,31.6,24.7,13.8,0000.6,0007.49,0011.42,0007.03
2023-03-04 19:28:00,,0820.0,5.00,0.00,22.9,21.5,00.0,31.6,24.7,13.7,0000.8,0007.45,0011.22,0007.02
2023-03-04 19:29:00,,0820.0,4.99,0.00,22.9,21.5,00.0,31.6,24.7,13.8,0000.5,0007.45,0011.82,0007.02
2023-03-04 19:30:00,,0820.0,5.00,0.00,22.9,21.5,00.0,31.6,24.8,13.8,0000.4,0007.44,0011.47,0007.00
2023-03-04 19:31:00,,0820.0,5.00,0.00,22.9,21.4,00.0,31.6,24.7,13.6,0000.4,0007.44,0012.00,0006.98
2023-03-04 19:32:00,,0819.9,4.99,0.00,22.9,21.5,00.0,31.6,24.7,13.6,0000.4,0007.41,0011.98,0006.96
2023-03-04 19:33:00,,0819.9,5.01,0.00,22.9,21.5,00.0,31.6,24.7,13.5,0000.5,0007.40,0011.99,0006.94
2023-03-04 19:34:00,,0819.9,4.99,0.00,22.9,21.6,00.0,31.6,24.7,13.4,0000.5,0007.38,0011.91,0006.93
2023-03-04 19:35:00,,0819.9,5.00,0.00,22.9,21.6,00.0,31.6,24.7,13.5,0000.6,0007.33,0011.80,0006.90
2023-03-04 19:36:00,,0819.9,5.00,0.00,22.9,21.6,00.0,31.6,24.7,13.7,0000.6,0007.29,0011.87,0006.87
2023-03-04 19:37:00,,0819.9,5.01,0.00,22.9,21.5,00.0,31.6,24.8,13.8,-000.1,0007.30,0012.24,0006.86
2023-03-04 19:38:00,,0819.9,5.00,0.00,22.9,21.5,00.0,31.6,24.7,13.4,-000.3,0007.27,0012.83,0006.85
2023-03-04 19:39:00,,0819.9,5.00,0.00,22.9,21.5,00.0,31.6,24.7,13.4,-000.5,0007.29,0013.01,0006.85
2023-03-04 19:40:00,,0819.8,5.00,0.00,22.9,21.5,00.0,31.6,24.7,13.4,-000.1,0007.29,0012.59,0006.84
2023-03-04 19:41:00,,0819.8,5.00,0.00,22.9,21.6,00.0,31.6,24.7,13.3,0000.0,0007.26,0012.81,0006.83
2023-03-04 19:42:00,,0819.7,5.01,0.00,22.9,21.6,00.0,31.6,24.7,13.3,-000.0,0007.22,0012.20,0006.83
2023-03-04 19:43:00,,0819.7,5.00,0.00,22.9,21.6,00.0,31.6,24.8,13.3,0000.1,0007.23,0012.72,0006.83
2023-03-04 19:44:00,,0819.6,5.00,0.00,22.9,21.6,00.0,31.6,24.8,13.2,0000.5,0007.26,0012.87,0006.85
2023-03-04 19:45:00,,0819.6,5.00,0.00,22.9,21.7,00.0,31.6,24.8,13.1,0001.0,0007.26,0012.85,0006.85
2023-03-04 19:46:00,,0819.6,5.00,0.00,22.9,21.7,00.0,31.6,24.8,13.2,0001.1,0007.29,0012.94,0006.85
2023-03-04 19:47:00,,0819.6,4.98,0.00,22.9,21.7,00.0,31.6,24.8,13.1,0001.1,0007.29,0012.78,0006.86
2023-03-04 19:48:00,,0819.6,5.00,0.00,22.9,21.7,00.0,31.6,24.8,12.9,0001.1,0007.27,0012.38,0006.85
2023-03-04 19:49:00,,0819.6,5.01,0.00,22.9,21.8,00.0,31.6,24.8,12.9,0001.0,0007.25,0011.75,0006.85
2023-03-04 19:50:00,,0819.5,5.01,0.00,22.9,21.8,00.0,31.6,24.8,12.9,0000.8,0007.24,0011.72,0006.83
2023-03-04 19:51:00,,0819.4,5.00,0.00,23.0,21.8,00.0,31.6,24.8,12.9,0000.2,0007.25,0012.08,0006.83
2023-03-04 19:52:00,,0819.4,5.00,0.00,23.0,21.8,00.0,31.6,24.8,13.0,0000.2,0007.31,0011.97,0006.87
2023-03-04 19:53:00,,0819.3,5.00,0.00,23.0,21.7,00.0,31.7,24.8,13.0,0000.5,0007.37,0012.11,0006.90
2023-03-04 19:54:00,,0819.3,5.00,0.00,23.0,21.6,00.0,31.7,24.8,12.8,0000.6,0007.42,0011.97,0006.95
2023-03-04 19:55:00,,0819.3,5.00,0.00,23.0,21.6,00.0,31.7,24.8,12.9,0000.5,0007.45,0012.08,0006.98
2023-03-04 19:56:00,,0819.4,5.00,0.00,23.0,21.5,00.0,31.7,24.8,12.8,0000.2,0007.48,0012.39,0007.01
2023-03-04 19:57:00,,0819.4,4.99,0.00,22.9,21.4,00.0,31.7,24.8,12.7,0000.1,0007.52,0012.67,0007.07
2023-03-04 19:58:00,,0819.3,5.01,0.00,22.9,21.4,00.0,31.7,24.8,12.5,0000.2,0007.59,0012.84,0007.12
2023-03-04 19:59:00,,0819.2,4.99,0.00,22.9,21.3,00.0,31.7,24.7,12.5,0000.4,0007.66,0012.96,0007.17
